Weather History for Lima, OH

Change the Weather History Date:

Wednesday, November 6, 2013

  Actual Average (KFDY) Record (KFDY)
Temperature  
Mean Temperature 52 °F -  
Max Temperature 60 °F 49 °F 75 °F (1975)
Min Temperature 44 °F 34 °F 19 °F (1967)
Degree Days  
Heating Degree Days 13    
Growing Degree Days 2 (Base 50)    
Moisture  
Dew Point 46 °F    
Average Humidity 74    
Maximum Humidity 88    
Minimum Humidity 51    
Precipitation  
Precipitation 0.24 in - - ()
Sea Level Pressure  
Sea Level Pressure 30.01 in    
Wind  
Wind Speed 15 mph (SW)    
Max Wind Speed 22 mph    
Max Gust Speed 33 mph    
Visibility 10 miles    
Events Rain    
Averages and records for this station are not official NWS values.
T = Trace of Precipitation, MM = Missing Value Source: NWS Daily Summary

Daily Weather History Graph

Daily Weather History Graph

Search for Another Location

Airport:

Trip Planner

Search our weather history database for the weather conditions in past years. The results will help you decide how hot, cold, wet, or windy it might be!

Date:

Astronomy

Nov. 06, 2013 Rise Set
Actual Time 7:12 AM EST 5:26 PM EST
Civil Twilight 6:43 AM EST 5:55 PM EST
Nautical Twilight 6:11 AM EST 6:27 PM EST
Astronomical Twilight 5:39 AM EST 6:59 PM EST
Moon 10:27 AM EST (11/6) 8:29 PM EST (11/6)
Length of Visible Light 11h 11m
Length of Day
10h 13m
Waxing Crescent, 13% of the Moon is Illuminated
Nov 6
Waxing Crescent
Nov 10
First Quarter
Nov 17
Full
Nov 25
Last Quarter
Dec 2
New

Hourly Weather History & Observations

Time (EST) Temp. Windchill Dew Point Humidity Pressure Visibility Wind Dir Wind Speed Gust Speed Precip Events Conditions
12:53 AM 51.1 °F - 37.9 °F 61% 30.18 in 10.0 mi South 13.8 mph - N/A   Clear
1:53 AM 52.0 °F - 37.9 °F 59% 30.16 in 10.0 mi South 10.4 mph - N/A   Clear
2:53 AM 54.0 °F - 37.0 °F 53% 30.14 in 10.0 mi South 11.5 mph - N/A   Overcast
3:53 AM 55.9 °F - 37.9 °F 51% 30.12 in 10.0 mi South 12.7 mph - N/A   Overcast
4:53 AM 55.9 °F - 41.0 °F 57% 30.10 in 10.0 mi South 12.7 mph - N/A   Overcast
5:53 AM 57.9 °F - 42.1 °F 56% 30.07 in 10.0 mi South 21.9 mph 29.9 mph N/A   Overcast
6:53 AM 57.9 °F - 42.1 °F 56% 30.05 in 10.0 mi South 17.3 mph 29.9 mph 0.00 in   Overcast
7:53 AM 57.9 °F - 42.1 °F 56% 30.04 in 10.0 mi South 17.3 mph 25.3 mph N/A   Mostly Cloudy
8:53 AM 57.9 °F - 42.1 °F 56% 30.04 in 10.0 mi SSW 18.4 mph 29.9 mph 0.00 in   Partly Cloudy
9:53 AM 59.0 °F - 43.0 °F 55% 30.04 in 10.0 mi SSW 16.1 mph 33.4 mph N/A   Scattered Clouds
10:53 AM 59.0 °F - 45.0 °F 60% 30.02 in 10.0 mi SSW 19.6 mph 33.4 mph 0.00 in Rain Light Rain
11:53 AM 57.0 °F - 48.0 °F 72% 30.01 in 10.0 mi South 15.0 mph 20.7 mph 0.02 in Rain Light Rain
12:53 PM 57.0 °F - 50.0 °F 77% 29.97 in 10.0 mi South 16.1 mph 23.0 mph 0.04 in Rain Light Rain
1:53 PM 57.9 °F - 51.1 °F 78% 29.93 in 10.0 mi SSW 15.0 mph 27.6 mph 0.00 in Rain Light Rain
2:53 PM 59.0 °F - 53.1 °F 81% 29.92 in 10.0 mi SSW 16.1 mph 24.2 mph 0.01 in   Overcast
3:53 PM 60.1 °F - 54.0 °F 80% 29.93 in 10.0 mi SW 19.6 mph 27.6 mph 0.01 in   Overcast
4:43 PM 59.0 °F - 53.6 °F 82% 29.93 in 7.0 mi SW 15.0 mph 29.9 mph 0.02 in Rain Light Rain
4:53 PM 59.0 °F - 54.0 °F 83% 29.93 in 10.0 mi SW 19.6 mph 25.3 mph 0.02 in   Overcast
5:53 PM 57.9 °F - 53.1 °F 84% 29.94 in 10.0 mi SW 16.1 mph - 0.00 in   Overcast
6:31 PM 57.2 °F - 53.6 °F 88% 29.94 in 10.0 mi SW 16.1 mph - 0.00 in Rain Light Rain
6:53 PM 57.9 °F - 53.1 °F 84% 29.95 in 10.0 mi SW 12.7 mph - 0.01 in Rain Light Rain
7:53 PM 57.0 °F - 52.0 °F 83% 29.95 in 10.0 mi WSW 15.0 mph 21.9 mph 0.00 in   Overcast
8:05 PM 57.2 °F - 51.8 °F 82% 29.95 in 8.0 mi SW 12.7 mph - N/A   Overcast
8:13 PM 57.2 °F - 51.8 °F 82% 29.95 in 9.0 mi WSW 13.8 mph 21.9 mph N/A   Overcast
8:30 PM 55.4 °F - 51.8 °F 88% 29.95 in 6.0 mi WSW 13.8 mph - 0.01 in Rain Light Rain
8:41 PM 53.6 °F - 50.0 °F 88% 29.97 in 9.0 mi WNW 17.3 mph 29.9 mph 0.01 in Rain Light Rain
8:53 PM 51.1 °F - 46.0 °F 83% 29.99 in 9.0 mi West 20.7 mph 32.2 mph 0.02 in Rain Light Rain
9:53 PM 46.0 °F 39.3 °F 42.1 °F 86% 30.00 in 10.0 mi NW 16.1 mph 26.5 mph 0.04 in Rain Light Rain
10:01 PM 46.4 °F 39.8 °F 42.8 °F 87% 30.01 in 10.0 mi WNW 16.1 mph - 0.01 in Rain Light Rain
10:41 PM 46.4 °F 40.4 °F 41.0 °F 81% 30.02 in 10.0 mi NW 13.8 mph - 0.04 in Rain Light Rain
10:53 PM 46.0 °F 39.6 °F 41.0 °F 83% 30.03 in 10.0 mi NW 15.0 mph - 0.05 in Rain Light Rain
11:39 PM 44.6 °F 38.1 °F 39.2 °F 81% 30.01 in 10.0 mi NW 13.8 mph - 0.01 in Rain Light Rain
11:53 PM 45.0 °F 38.2 °F 39.9 °F 82% 30.04 in 10.0 mi NW 15.0 mph - 0.02 in Rain Light Rain